DL3CK-10 Weather Reports


time (UTC)temp
C
wind
direction
speed
KPH
gust
KPH
rain 1hr
cm
rain 24hr
cm
rain mn
cm
humidity
%
barometer
mb
20260506131504 23 90 0.0 0.0 0.00 0.00 0.00 46 1001.7
20260506121504 23 90 0.0 0.0 0.00 0.00 0.00 49 1002.4
20260506111504 22 67 0.0 0.0 0.00 0.00 0.00 51 1003.0
20260506101504 20 315 0.0 0.0 0.00 0.00 0.00 56 1003.7
20260506091504 18 292 0.0 0.0 0.00 0.00 0.00 61 1003.8
20260506081505 16 270 0.0 0.0 0.00 0.00 0.00 67 1004.0
20260506071505 15 270 0.0 0.0 0.00 0.00 0.00 72 1004.4
20260506061505 12 270 0.0 0.0 0.00 0.00 0.00 77 1004.2
20260506041505 11 270 0.0 0.0 0.00 0.00 0.00 78 1004.6
20260506031505 11 270 0.0 0.0 0.00 0.00 0.00 76 1004.7
20260506021505 12 270 0.0 0.0 0.00 0.00 0.00 74 1005.0
20260506011505 12 270 0.0 0.0 0.00 0.00 0.00 73 1005.1
20260506001505 13 270 0.0 0.0 0.00 0.00 0.00 73 1005.0
20260505231505 14 270 0.0 0.0 0.00 0.00 0.00 72 1005.6
20260505221505 15 270 0.0 0.0 0.00 0.00 0.00 71 1005.3
20260505211506 15 270 0.0 0.0 0.00 0.00 0.00 70 1005.6
20260505201506 15 270 0.0 0.0 0.00 0.00 0.00 69 1004.8
20260505191506 16 270 0.0 0.0 0.00 0.00 0.00 67 1004.1
20260505181506 17 270 0.0 0.0 0.00 0.00 0.00 65 1003.4
20260505171506 17 270 0.0 0.0 0.00 0.00 0.00 64 1003.4
20260505161506 17 270 0.0 0.0 0.00 0.00 0.00 62 1003.3
20260505151506 19 270 0.0 0.0 0.00 0.00 0.00 59 1003.0